Garrison, ND

4:22 AM CDT on June 29, 2017 (GMT -0500)
Garrison

Weather History for KN60 - March, 2013

Change the Weather History Date:

Sunday, March 17, 2013

  Actual Average Record
Temperature  
Mean Temperature 14 °F -  
Max Temperature 21 °F - 68 °F (2012)
Min Temperature 8 °F - 3 °F (1997)
Degree Days  
Heating Degree Days 50    
Cooling Degree Days 0    
Moisture  
Dew Point 12 °F    
Average Humidity 85    
Maximum Humidity 92    
Minimum Humidity 77    
Precipitation  
Precipitation 0.19 in - 0.19 in (2013)
Month to date precipitation  
Year to date precipitation  
Sea Level Pressure  
Sea Level Pressure 29.81 in    
Wind  
Wind Speed 15 mph (SE)    
Max Wind Speed 20 mph    
Max Gust Speed 28 mph    
T = Trace of Precipitation, MM = Missing Value Source: NWS Daily Summary

Daily Weather History Graph

Daily Weather History Graph

Search for Another Location

Airport or City:

Trip Planner

Search our weather history database for the weather conditions in past years. The results will help you decide how hot, cold, wet, or windy it might be!

Date:

Astronomy

Mar. 17, 2013 Rise Set
Actual Time 7:54 AM CDT 7:54 PM CDT
Civil Twilight 7:23 AM CDT 8:25 PM CDT
Nautical Twilight 6:47 AM CDT 9:01 PM CDT
Astronomical Twilight 6:10 AM CDT 9:38 PM CDT
Moon 10:44 AM CDT (3/17) 1:27 AM CDT (3/17)
Length of Visible Light 13h 01m
Length of Day
12h 00m
Waxing Crescent, 31% of the Moon is Illuminated
Mar 17
Waxing Crescent
Mar 19
First Quarter
Mar 27
Full
Apr 2
Last Quarter
Apr 10
New

Hourly Weather History & Observations

Time (CDT) Temp. Windchill Dew Point Humidity Pressure Visibility Wind Dir Wind Speed Gust Speed Precip Events Conditions
12:52 AM 8.1 °F -9.0 °F 3.0 °F 80% 30.20 in - SE 15.0 mph - N/A   Unknown
1:52 AM 8.1 °F -8.4 °F 3.0 °F 80% 30.16 in - SE 13.8 mph - N/A   Unknown
2:52 AM 9.0 °F -7.9 °F 3.0 °F 77% 30.13 in - SSE 15.0 mph - N/A   Unknown
3:52 AM 9.0 °F -7.3 °F 5.0 °F 84% 30.08 in - SE 13.8 mph - N/A   Unknown
4:52 AM 10.0 °F -7.1 °F 6.1 °F 84% 30.05 in - SE 16.1 mph - N/A   Unknown
5:52 AM 10.9 °F -6.5 °F 7.0 °F 84% 30.01 in - SE 17.3 mph - N/A   Unknown
6:52 AM 10.9 °F -6.5 °F 7.0 °F 84% 29.97 in - SE 17.3 mph - N/A   Unknown
7:52 AM 12.0 °F -5.6 °F 8.1 °F 84% 29.94 in - SE 18.4 mph 25.3 mph N/A   Unknown
8:52 AM 10.9 °F -7.5 °F 8.1 °F 88% 29.90 in - SSE 19.6 mph - N/A   Unknown
9:52 AM 12.0 °F -5.1 °F 8.1 °F 84% 29.86 in - SSE 17.3 mph - N/A   Unknown
10:52 AM 14.0 °F -3.4 °F 10.0 °F 84% 29.82 in - SSE 19.6 mph 26.5 mph N/A   Unknown
11:52 AM 16.0 °F 0.6 °F 10.9 °F 81% 29.77 in - SSE 16.1 mph 27.6 mph N/A   Unknown
12:52 PM 17.1 °F 0.6 °F 12.9 °F 84% 29.74 in - SSE 19.6 mph - 0.01 in   Unknown
1:52 PM 18.0 °F 2.2 °F 14.0 °F 84% 29.69 in - SE 18.4 mph - N/A   Unknown
2:52 PM 19.9 °F 4.8 °F 15.1 °F 81% 29.66 in - SE 18.4 mph - N/A   Unknown
3:52 PM 21.0 °F 6.6 °F 17.1 °F 85% 29.61 in - SSE 17.3 mph 26.5 mph N/A   Unknown
4:52 PM 21.9 °F 8.7 °F 18.0 °F 85% 29.59 in - SE 15.0 mph - N/A   Unknown
5:52 PM 21.9 °F 11.0 °F 18.0 °F 85% 29.58 in - ESE 10.4 mph - N/A   Unknown
6:52 PM 21.0 °F 9.3 °F 19.0 °F 92% 29.58 in - ESE 11.5 mph - 0.07 in   Unknown
7:52 PM 19.9 °F 11.1 °F 18.0 °F 92% 29.58 in - ESE 6.9 mph - 0.04 in   Unknown
8:52 PM 21.0 °F - 19.0 °F 92% 29.59 in - Calm Calm - 0.01 in   Unknown
9:52 PM 21.0 °F 12.4 °F 18.0 °F 88% 29.60 in - NW 6.9 mph - 0.02 in   Unknown
10:52 PM 19.9 °F 7.9 °F 18.0 °F 92% 29.61 in - NW 11.5 mph - 0.03 in   Unknown
11:52 PM 19.0 °F 4.0 °F 16.0 °F 88% 29.63 in - NNW 17.3 mph - 0.01 in   Unknown